Find Starlink 3162

NORAD ID: 49411 Int'l Des: 2021-104 Owner: SPXS Country: US Constellation: starlink operational
LEOCIRCULAR

Live-Position

3D-Globus wird geladen...

Über Starlink 3162

Beschreibung wird geladen...

Nächste Überflüge

Passes for default location (London). Set your location on the main map for personalized predictions.

Höhenverlauf

Loading altitude history...

Zweizeiliger Elementsatz

1 49411U 21104D 26124.88443522 .00005978 00000-0 39367-3 0 9998
2 49411 53.2178 326.8538 0002499 56.5355 303.5876 15.08809466247254
Epoch: 4. Mai 2026 • Age: 17 hours

Aktueller Status

Höhe 559.8 km
Geschwindigkeit 7.58 km/s
Subsatellitenpunkt -53.08°S, 147.55°E
Startdatum 13. Nov. 2021
Alter 4.4 years
Typ internet

Technische Details

Klassifizierung Payload
Masse 290.00 kg
Trockenmasse 270.00 kg
Gesamtmasse 290.00 kg
Länge 0.20 m
Durchmesser 2.80 m
Spannweite 9.00 m
Form Box + pan
Hersteller SPXS
Bus-Typ Starlink
Phasenstatus In Orbit
Besitzer/Staat SPXS/US

Most Searched